Hourly Weather Bolshie Karnyshi

Today, 16 June, Wednesday

Time Temperature Precipitation Wind Pressure Humidity
00:00 +14°C° 0 mm 3 mps 738 mmHg 95%
01:00 +13°C° 0 mm 3 mps 738 mmHg 94%
02:00 +13°C° 0 mm 3 mps 738 mmHg 94%
03:00 +12°C° 0 mm 2 mps 738 mmHg 94%
04:00 +10°C° 0 mm 2 mps 738 mmHg 94%
05:00 +9°C° 0 mm 2 mps 738 mmHg 94%
06:00 +12°C° 0 mm 2 mps 739 mmHg 88%
07:00 +12°C° 0 mm 3 mps 739 mmHg 82%
08:00 +14°C° 0 mm 3 mps 739 mmHg 77%
09:00 +16°C° 0 mm 3 mps 739 mmHg 70%
10:00 +18°C° 0 mm 3 mps 740 mmHg 63%
11:00 +19°C° 0 mm 2 mps 740 mmHg 57%
12:00 +20°C° 0 mm 3 mps 740 mmHg 55%
13:00 +20°C° 0 mm 3 mps 740 mmHg 53%
14:00 +21°C° 0 mm 3 mps 740 mmHg 51%
15:00 +21°C° 0 mm 3 mps 740 mmHg 53%
16:00 +21°C° 0 mm 3 mps 740 mmHg 56%
17:00 +20°C° 0 mm 3 mps 740 mmHg 58%
18:00 +19°C° 0 mm 3 mps 740 mmHg 64%
19:00 +17°C° 0 mm 2 mps 740 mmHg 70%
20:00 +16°C° 0 mm 2 mps 740 mmHg 76%
21:00 +15°C° 0 mm 2 mps 741 mmHg 78%
22:00 +13°C° 0 mm 2 mps 741 mmHg 81%
23:00 +12°C° 0 mm 2 mps 741 mmHg 84%

Tomorrow, 17 June, Thursday

Time Temperature Precipitation Wind Pressure Humidity
00:00 +12°C° 0 mm 2 mps 741 mmHg 84%
01:00 +10°C° 0 mm 2 mps 741 mmHg 84%
02:00 +10°C° 0 mm 2 mps 742 mmHg 84%
03:00 +10°C° 0 mm 2 mps 742 mmHg 84%
04:00 +10°C° 0 mm 2 mps 742 mmHg 84%
05:00 +10°C° 0 mm 2 mps 742 mmHg 84%
06:00 +13°C° 0 mm 2 mps 743 mmHg 77%
07:00 +15°C° 0 mm 2 mps 743 mmHg 71%
08:00 +18°C° 0 mm 2 mps 743 mmHg 65%
09:00 +19°C° 0 mm 2 mps 743 mmHg 62%
10:00 +20°C° 0 mm 2 mps 744 mmHg 58%
11:00 +23°C° 0 mm 2 mps 744 mmHg 54%
12:00 +24°C° 0 mm 2 mps 744 mmHg 52%
13:00 +24°C° 0 mm 2 mps 744 mmHg 51%
14:00 +25°C° 0 mm 2 mps 744 mmHg 49%
15:00 +25°C° 0 mm 2 mps 744 mmHg 51%
16:00 +25°C° 0 mm 2 mps 743 mmHg 54%
17:00 +25°C° 0 mm 2 mps 743 mmHg 56%
18:00 +23°C° 0 mm 2 mps 743 mmHg 63%
19:00 +20°C° 0 mm 2 mps 743 mmHg 70%
20:00 +19°C° 0 mm 2 mps 743 mmHg 77%
21:00 +18°C° 0 mm 2 mps 744 mmHg 78%
22:00 +16°C° 0 mm 2 mps 744 mmHg 80%
23:00 +15°C° 0 mm 2 mps 744 mmHg 81%

Day after tomorrow, 18 June, Friday

Time Temperature Precipitation Wind Pressure Humidity
00:00 +15°C° 0 mm 2 mps 744 mmHg 84%
01:00 +14°C° 0 mm 2 mps 744 mmHg 86%
02:00 +14°C° 0 mm 2 mps 744 mmHg 88%
03:00 +14°C° 0 mm 2 mps 744 mmHg 89%
04:00 +14°C° 0 mm 2 mps 744 mmHg 89%
05:00 +14°C° 0 mm 2 mps 744 mmHg 90%
06:00 +16°C° 0 mm 2 mps 744 mmHg 84%
07:00 +18°C° 0 mm 3 mps 744 mmHg 79%
08:00 +20°C° 0 mm 3 mps 744 mmHg 73%
09:00 +21°C° 0 mm 3 mps 744 mmHg 68%
10:00 +22°C° 0 mm 4 mps 744 mmHg 64%
11:00 +23°C° 0 mm 4 mps 744 mmHg 59%
12:00 +25°C° 0 mm 4 mps 744 mmHg 57%
13:00 +25°C° 0 mm 4 mps 744 mmHg 55%
14:00 +26°C° 0 mm 4 mps 744 mmHg 53%
15:00 +25°C° 0 mm 4 mps 744 mmHg 56%
16:00 +25°C° 0 mm 4 mps 744 mmHg 59%
17:00 +25°C° 0 mm 3 mps 743 mmHg 62%
18:00 +22°C° 0 mm 3 mps 743 mmHg 68%
19:00 +21°C° 0 mm 3 mps 743 mmHg 74%
20:00 +19°C° 0 mm 2 mps 743 mmHg 80%
21:00 +18°C° 0 mm 3 mps 743 mmHg 81%
22:00 +17°C° 0 mm 3 mps 743 mmHg 82%
23:00 +16°C° 0 mm 3 mps 743 mmHg 83%

19 June, Saturday

Time Temperature Precipitation Wind Pressure Humidity
00:00 +14°C° 0 mm 3 mps 743 mmHg 86%
01:00 +14°C° 0 mm 3 mps 743 mmHg 88%
02:00 +13°C° 0 mm 3 mps 743 mmHg 91%
03:00 +14°C° 0 mm 2 mps 743 mmHg 91%
04:00 +14°C° 0 mm 2 mps 744 mmHg 91%
05:00 +14°C° 0 mm 2 mps 744 mmHg 91%
06:00 +16°C° 0 mm 2 mps 744 mmHg 86%
07:00 +18°C° 0 mm 3 mps 744 mmHg 81%
08:00 +20°C° 0 mm 3 mps 744 mmHg 76%
09:00 +22°C° 0 mm 3 mps 744 mmHg 71%
10:00 +23°C° 0 mm 4 mps 744 mmHg 67%
11:00 +25°C° 0 mm 4 mps 744 mmHg 63%
12:00 +26°C° 0 mm 4 mps 744 mmHg 61%
13:00 +26°C° 0 mm 4 mps 743 mmHg 60%
14:00 +27°C° 0 mm 4 mps 743 mmHg 58%
15:00 +27°C° 0 mm 3 mps 743 mmHg 60%
16:00 +27°C° 0 mm 3 mps 743 mmHg 62%
17:00 +26°C° 0 mm 3 mps 743 mmHg 65%
18:00 +25°C° 0 mm 3 mps 742 mmHg 70%
19:00 +22°C° 0 mm 3 mps 742 mmHg 76%
20:00 +21°C° 0 mm 3 mps 742 mmHg 81%
21:00 +20°C° 0 mm 3 mps 742 mmHg 82%
22:00 +19°C° 0 mm 3 mps 742 mmHg 83%
23:00 +18°C° 0 mm 3 mps 742 mmHg 85%

20 June, Sunday

Time Temperature Precipitation Wind Pressure Humidity
00:00 +17°C° 0 mm 3 mps 742 mmHg 87%
01:00 +17°C° 0 mm 3 mps 742 mmHg 89%
02:00 +16°C° 0 mm 2 mps 742 mmHg 92%
03:00 +16°C° 0 mm 2 mps 742 mmHg 92%
04:00 +16°C° 0 mm 2 mps 742 mmHg 93%
05:00 +16°C° 0 mm 2 mps 742 mmHg 94%
06:00 +18°C° 0 mm 2 mps 743 mmHg 88%
07:00 +20°C° 0 mm 3 mps 743 mmHg 82%
08:00 +22°C° 0 mm 3 mps 743 mmHg 77%
09:00 +24°C° 0 mm 3 mps 743 mmHg 73%
10:00 +25°C° 0 mm 3 mps 743 mmHg 68%
11:00 +26°C° 0 mm 4 mps 742 mmHg 64%
12:00 +26°C° 0 mm 4 mps 742 mmHg 62%
13:00 +27°C° 0 mm 4 mps 742 mmHg 60%
14:00 +27°C° 0 mm 4 mps 742 mmHg 57%
15:00 +27°C° 0 mm 3 mps 742 mmHg 60%
16:00 +27°C° 0 mm 3 mps 741 mmHg 64%
17:00 +26°C° 0 mm 3 mps 741 mmHg 67%
18:00 +25°C° 0.1 mm 3 mps 741 mmHg 72%
19:00 +24°C° 0.1 mm 2 mps 741 mmHg 78%
20:00 +21°C° 0.1 mm 2 mps 741 mmHg 83%
21:00 +20°C° 0 mm 2 mps 741 mmHg 85%
22:00 +20°C° 0 mm 2 mps 741 mmHg 87%
23:00 +19°C° 0 mm 2 mps 741 mmHg 88%

21 June, Monday

Time Temperature Precipitation Wind Pressure Humidity
00:00 +18°C° 0 mm 2 mps 741 mmHg 89%
01:00 +18°C° 0 mm 2 mps 741 mmHg 91%
02:00 +17°C° 0 mm 2 mps 741 mmHg 92%
03:00 +17°C° 0 mm 2 mps 741 mmHg 92%
04:00 +17°C° 0 mm 2 mps 741 mmHg 92%
05:00 +17°C° 0 mm 2 mps 741 mmHg 92%
06:00 +19°C° 0 mm 2 mps 741 mmHg 87%
07:00 +21°C° 0 mm 2 mps 741 mmHg 81%
08:00 +22°C° 0 mm 3 mps 741 mmHg 76%
09:00 +24°C° 0 mm 3 mps 741 mmHg 71%
10:00 +26°C° 0 mm 3 mps 741 mmHg 67%
11:00 +27°C° 0 mm 4 mps 741 mmHg 62%
12:00 +27°C° 0 mm 4 mps 740 mmHg 60%
13:00 +28°C° 0 mm 4 mps 740 mmHg 58%
14:00 +28°C° 0 mm 4 mps 740 mmHg 56%
15:00 +28°C° 0 mm 4 mps 740 mmHg 58%
16:00 +28°C° 0 mm 4 mps 739 mmHg 60%
17:00 +28°C° 0 mm 3 mps 739 mmHg 62%
18:00 +26°C° 0 mm 3 mps 739 mmHg 68%
19:00 +25°C° 0 mm 3 mps 739 mmHg 74%
20:00 +23°C° 0 mm 2 mps 738 mmHg 79%
21:00 +21°C° 0 mm 2 mps 738 mmHg 82%
22:00 +20°C° 0 mm 3 mps 738 mmHg 84%
23:00 +19°C° 0 mm 3 mps 738 mmHg 87%
Show more